• In Germany
  • List of Countries
  • For 7 days
  • Water Temperature
  • Satellite Maps
  • Weather Map
  • Weather Widgets
  • user-avatar
    Login

    Hourly Weather Klarewo

    Today, 22 October, Monday

    Time Temperature Precipitation Wind Pressure Humidity
    00:00 +6°C° 0 mm 2 mps 757 mmHg 85%
    01:00 +5°C° 0 mm 2 mps 757 mmHg 87%
    02:00 +5°C° 0 mm 2 mps 756 mmHg 89%
    03:00 +4°C° 0 mm 2 mps 756 mmHg 90%
    04:00 +3°C° 0 mm 3 mps 755 mmHg 91%
    05:00 +3°C° 0 mm 3 mps 755 mmHg 91%
    06:00 +3°C° 0 mm 3 mps 755 mmHg 90%
    07:00 +3°C° 0 mm 3 mps 755 mmHg 90%
    08:00 +5°C° 0 mm 4 mps 755 mmHg 82%
    09:00 +7°C° 0 mm 4 mps 754 mmHg 74%
    10:00 +8°C° 0 mm 5 mps 754 mmHg 66%
    11:00 +9°C° 0 mm 5 mps 753 mmHg 64%
    12:00 +10°C° 0 mm 5 mps 753 mmHg 62%
    13:00 +10°C° 0 mm 5 mps 752 mmHg 60%
    14:00 +10°C° 0.1 mm 5 mps 752 mmHg 65%
    15:00 +9°C° 0.1 mm 5 mps 751 mmHg 70%
    16:00 +9°C° 0.1 mm 5 mps 751 mmHg 75%
    17:00 +8°C° 0.4 mm 5 mps 751 mmHg 78%
    18:00 +8°C° 0.4 mm 5 mps 751 mmHg 82%
    19:00 +8°C° 0.4 mm 5 mps 751 mmHg 85%
    20:00 +7°C° 0 mm 4 mps 751 mmHg 86%
    21:00 +7°C° 0 mm 3 mps 751 mmHg 87%
    22:00 +4°C° 0 mm 3 mps 751 mmHg 88%
    23:00 +4°C° 0 mm 3 mps 751 mmHg 88%

    Tomorrow, 23 October, Tuesday

    Time Temperature Precipitation Wind Pressure Humidity
    00:00 +4°C° 0 mm 3 mps 751 mmHg 88%
    01:00 +3°C° 0 mm 3 mps 751 mmHg 88%
    02:00 +3°C° 0 mm 3 mps 750 mmHg 88%
    03:00 +3°C° 0 mm 3 mps 750 mmHg 88%
    04:00 +3°C° 0 mm 4 mps 749 mmHg 88%
    05:00 +3°C° 0 mm 4 mps 749 mmHg 87%
    06:00 +4°C° 0 mm 4 mps 748 mmHg 86%
    07:00 +3°C° 0 mm 5 mps 748 mmHg 85%
    08:00 +4°C° 0.1 mm 6 mps 747 mmHg 80%
    09:00 +5°C° 0.1 mm 7 mps 746 mmHg 76%
    10:00 +5°C° 0.1 mm 7 mps 745 mmHg 72%
    11:00 +5°C° 0.7 mm 8 mps 743 mmHg 74%
    12:00 +5°C° 0.7 mm 9 mps 741 mmHg 76%
    13:00 +3°C° 0.7 mm 9 mps 739 mmHg 78%
    14:00 +5°C° 1.8 mm 10 mps 738 mmHg 80%
    15:00 +5°C° 1.8 mm 10 mps 736 mmHg 82%
    16:00 +5°C° 1.8 mm 10 mps 734 mmHg 84%
    17:00 +5°C° 0.9 mm 9 mps 733 mmHg 85%
    18:00 +6°C° 0.9 mm 8 mps 732 mmHg 85%
    19:00 +8°C° 0.9 mm 7 mps 731 mmHg 85%
    20:00 +6°C° 0.3 mm 7 mps 730 mmHg 83%
    21:00 +6°C° 0.3 mm 7 mps 730 mmHg 82%
    22:00 +6°C° 0.3 mm 7 mps 729 mmHg 80%
    23:00 +5°C° 0.2 mm 7 mps 729 mmHg 79%

    Day after tomorrow, 24 October, Wednesday

    Time Temperature Precipitation Wind Pressure Humidity
    00:00 +5°C° 0.2 mm 7 mps 728 mmHg 79%
    01:00 +5°C° 0.2 mm 7 mps 728 mmHg 78%
    02:00 +5°C° 0.3 mm 8 mps 728 mmHg 78%
    03:00 +3°C° 0.3 mm 9 mps 727 mmHg 78%
    04:00 +3°C° 0.3 mm 10 mps 727 mmHg 78%
    05:00 +3°C° 0.4 mm 9 mps 728 mmHg 76%
    06:00 +3°C° 0.4 mm 9 mps 728 mmHg 74%
    07:00 +2°C° 0.4 mm 9 mps 728 mmHg 72%
    08:00 +3°C° 0.2 mm 10 mps 729 mmHg 70%
    09:00 +4°C° 0.2 mm 11 mps 730 mmHg 68%
    10:00 +6°C° 0.2 mm 11 mps 731 mmHg 66%
    11:00 +5°C° 0.7 mm 12 mps 732 mmHg 67%
    12:00 +4°C° 0.7 mm 13 mps 732 mmHg 69%
    13:00 +4°C° 0.7 mm 14 mps 733 mmHg 70%
    14:00 +4°C° 0.5 mm 13 mps 734 mmHg 69%
    15:00 +4°C° 0.5 mm 12 mps 735 mmHg 68%
    16:00 +4°C° 0.5 mm 12 mps 736 mmHg 68%
    17:00 +4°C° 0.1 mm 11 mps 737 mmHg 68%
    18:00 +5°C° 0.1 mm 10 mps 738 mmHg 69%
    19:00 +3°C° 0.1 mm 10 mps 739 mmHg 70%
    20:00 +3°C° 0 mm 9 mps 740 mmHg 71%
    21:00 +3°C° 0 mm 9 mps 740 mmHg 73%
    22:00 +4°C° 0 mm 8 mps 741 mmHg 74%
    23:00 +3°C° 0 mm 7 mps 741 mmHg 75%

    25 October, Thursday

    Time Temperature Precipitation Wind Pressure Humidity
    00:00 +3°C° 0 mm 7 mps 742 mmHg 76%
    01:00 +3°C° 0 mm 6 mps 742 mmHg 77%
    02:00 +3°C° 0 mm 6 mps 742 mmHg 78%
    03:00 +2°C° 0 mm 5 mps 742 mmHg 80%
    04:00 +2°C° 0 mm 5 mps 742 mmHg 81%
    05:00 +2°C° 0 mm 5 mps 742 mmHg 80%
    06:00 +2°C° 0 mm 5 mps 742 mmHg 80%
    07:00 +2°C° 0 mm 5 mps 742 mmHg 80%
    08:00 +3°C° 0 mm 5 mps 742 mmHg 77%
    09:00 +5°C° 0 mm 5 mps 742 mmHg 74%
    10:00 +6°C° 0 mm 5 mps 741 mmHg 71%
    11:00 +6°C° 0.6 mm 5 mps 741 mmHg 76%
    12:00 +6°C° 0.6 mm 5 mps 740 mmHg 82%
    13:00 +5°C° 0.6 mm 5 mps 739 mmHg 88%
    14:00 +6°C° 0.3 mm 5 mps 739 mmHg 88%
    15:00 +7°C° 0.3 mm 5 mps 739 mmHg 88%
    16:00 +8°C° 0.3 mm 5 mps 738 mmHg 89%
    17:00 +8°C° 0.3 mm 5 mps 738 mmHg 89%
    18:00 +8°C° 0.3 mm 5 mps 738 mmHg 89%
    19:00 +8°C° 0.3 mm 5 mps 738 mmHg 90%
    20:00 +7°C° 0.2 mm 4 mps 738 mmHg 89%
    21:00 +7°C° 0.2 mm 4 mps 739 mmHg 88%
    22:00 +7°C° 0.2 mm 4 mps 739 mmHg 87%
    23:00 +7°C° 0.1 mm 4 mps 739 mmHg 88%

    26 October, Friday

    Time Temperature Precipitation Wind Pressure Humidity
    00:00 +7°C° 0.1 mm 4 mps 739 mmHg 88%
    01:00 +6°C° 0.1 mm 4 mps 740 mmHg 88%
    02:00 +6°C° 0 mm 4 mps 740 mmHg 89%
    03:00 +6°C° 0 mm 4 mps 740 mmHg 90%
    04:00 +6°C° 0 mm 4 mps 740 mmHg 91%
    05:00 +6°C° 0 mm 4 mps 740 mmHg 93%
    06:00 +6°C° 0 mm 4 mps 740 mmHg 94%
    07:00 +6°C° 0 mm 4 mps 740 mmHg 95%
    08:00 +7°C° 0.1 mm 4 mps 740 mmHg 93%
    09:00 +8°C° 0.1 mm 4 mps 740 mmHg 90%
    10:00 +8°C° 0.1 mm 5 mps 740 mmHg 87%
    11:00 +8°C° 0.1 mm 5 mps 740 mmHg 86%
    12:00 +8°C° 0.1 mm 6 mps 740 mmHg 84%
    13:00 +8°C° 0.1 mm 6 mps 739 mmHg 82%
    14:00 +8°C° 0 mm 6 mps 739 mmHg 81%
    15:00 +8°C° 0 mm 6 mps 739 mmHg 79%
    16:00 +8°C° 0 mm 5 mps 739 mmHg 78%
    17:00 +8°C° 0 mm 5 mps 739 mmHg 79%
    18:00 +8°C° 0 mm 5 mps 739 mmHg 80%
    19:00 +7°C° 0 mm 5 mps 739 mmHg 81%
    20:00 +7°C° 0 mm 5 mps 739 mmHg 82%
    21:00 +7°C° 0 mm 5 mps 739 mmHg 82%
    22:00 +7°C° 0 mm 4 mps 739 mmHg 83%
    23:00 +6°C° 0 mm 4 mps 739 mmHg 84%

    27 October, Saturday

    Time Temperature Precipitation Wind Pressure Humidity
    00:00 +6°C° 0 mm 4 mps 739 mmHg 86%
    01:00 +6°C° 0 mm 4 mps 739 mmHg 87%
    02:00 +6°C° 0 mm 4 mps 739 mmHg 89%
    03:00 +5°C° 0 mm 3 mps 739 mmHg 90%
    04:00 +5°C° 0 mm 3 mps 739 mmHg 92%
    05:00 +5°C° 0 mm 3 mps 739 mmHg 93%
    06:00 +4°C° 0 mm 3 mps 740 mmHg 95%
    07:00 +5°C° 0 mm 2 mps 740 mmHg 96%
    08:00 +6°C° 0 mm 2 mps 740 mmHg 90%
    09:00 +8°C° 0 mm 2 mps 740 mmHg 84%
    10:00 +9°C° 0 mm 2 mps 740 mmHg 78%
    11:00 +10°C° 0.1 mm 2 mps 739 mmHg 77%
    12:00 +10°C° 0.1 mm 2 mps 739 mmHg 76%
    13:00 +11°C° 0.1 mm 1 mps 738 mmHg 75%
    14:00 +10°C° 0.5 mm 2 mps 738 mmHg 80%
    15:00 +9°C° 0.5 mm 2 mps 738 mmHg 84%
    16:00 +9°C° 0.5 mm 3 mps 738 mmHg 89%
    17:00 +8°C° 1.9 mm 3 mps 737 mmHg 90%
    18:00 +7°C° 1.9 mm 4 mps 737 mmHg 91%
    19:00 +7°C° 1.9 mm 5 mps 737 mmHg 93%
    20:00 +7°C° 0.5 mm 5 mps 737 mmHg 92%
    21:00 +6°C° 0.5 mm 5 mps 737 mmHg 90%
    22:00 +6°C° 0.5 mm 4 mps 737 mmHg 89%
    23:00 +6°C° 0.1 mm 4 mps 737 mmHg 89%

    28 October, Sunday

    Time Temperature Precipitation Wind Pressure Humidity
    00:00 +6°C° 0.1 mm 4 mps 738 mmHg 88%
    01:00 +5°C° 0.1 mm 4 mps 738 mmHg 87%
    02:00 +5°C° 0 mm 4 mps 738 mmHg 87%
    03:00 +5°C° 0 mm 4 mps 739 mmHg 88%
    04:00 +4°C° 0 mm 4 mps 739 mmHg 88%
    05:00 +4°C° 0 mm 4 mps 739 mmHg 88%
    06:00 +4°C° 0 mm 4 mps 740 mmHg 88%
    07:00 +4°C° 0 mm 4 mps 740 mmHg 88%
    08:00 +5°C° 0.1 mm 4 mps 741 mmHg 86%
    09:00 +5°C° 0.1 mm 4 mps 741 mmHg 85%
    10:00 +6°C° 0.1 mm 4 mps 741 mmHg 83%
    11:00 +6°C° 0.2 mm 5 mps 741 mmHg 83%
    12:00 +6°C° 0.2 mm 5 mps 742 mmHg 83%
    13:00 +6°C° 0.2 mm 5 mps 742 mmHg 83%
    14:00 +6°C° 0.2 mm 5 mps 742 mmHg 84%
    15:00 +6°C° 0.2 mm 5 mps 742 mmHg 85%
    16:00 +6°C° 0.2 mm 5 mps 742 mmHg 86%
    17:00 +6°C° 0.2 mm 5 mps 742 mmHg 86%
    18:00 +6°C° 0.2 mm 5 mps 742 mmHg 86%
    19:00 +5°C° 0.2 mm 5 mps 743 mmHg 87%
    20:00 +5°C° 0.2 mm 5 mps 743 mmHg 87%
    21:00 +5°C° 0.2 mm 5 mps 743 mmHg 87%
    22:00 +5°C° 0.2 mm 5 mps 743 mmHg 87%
    23:00 +5°C° 0.1 mm 5 mps 743 mmHg 88%
    Show more